EW5612 Weather Reports


Display with metric or nautical units.
time (UTC)temp
F
wind
direction
speed
MPH
gust
MPH
rain 1hr
in
rain 24hr
in
rain mn
in
humidity
%
barometer
mb
20260904193203 92 101 0.0 0.0 0.00 0.07 0.07 56 1012.0
20260904192704 92 188 0.0 0.0 0.00 0.07 0.07 54 1012.1
20260904192204 92 231 0.0 0.0 0.00 0.07 0.07 56 1012.2
20260904191704 92 156 0.0 0.0 0.00 0.07 0.07 56 1012.2
20260904191204 91 184 0.0 0.0 0.00 0.07 0.07 58 1012.3
20260904190703 91 162 0.0 0.0 0.00 0.07 0.07 58 1012.3
20260904185703 91 185 0.0 0.0 0.00 0.07 0.07 59 1012.6
20260904185204 91 175 0.0 0.0 0.00 0.07 0.07 60 1012.6
20260904184203 91 174 0.0 0.0 0.00 0.07 0.07 59 1012.8
20260904183204 90 194 0.0 0.0 0.00 0.07 0.07 62 1012.8
20260904182703 90 169 0.0 3.0 0.00 0.07 0.07 63 1012.9
20260904181704 89 144 0.0 0.0 0.00 0.07 0.07 64 1013.0
20260904181204 89 183 0.0 0.0 0.00 0.07 0.07 66 1013.1
20260904180204 88 176 0.0 0.0 0.00 0.07 0.07 68 1013.2
20260904175703 88 179 0.0 0.0 0.00 0.07 0.07 68 1013.4
20260904174704 88 164 0.0 0.0 0.00 0.07 0.07 70 1013.4
20260904174204 88 164 0.0 0.0 0.00 0.07 0.07 70 1013.5
20260904173703 88 164 0.0 0.0 0.00 0.07 0.07 70 1013.5
20260904172704 88 121 0.0 0.0 0.00 0.07 0.07 69 1013.6
20260904172203 88 136 0.0 0.0 0.00 0.07 0.07 69 1013.6
20260904171703 88 148 0.0 0.0 0.00 0.07 0.07 70 1013.6
20260904171203 88 133 0.0 0.0 0.00 0.07 0.07 70 1013.6
20260904170703 88 148 0.0 0.0 0.00 0.07 0.07 71 1013.6
20260904170203 87 151 0.0 0.0 0.00 0.07 0.07 73 1013.7
20260904165704 87 122 0.0 0.0 0.00 0.07 0.07 74 1013.7
20260904165204 87 104 0.0 0.0 0.00 0.07 0.07 74 1013.6
20260904164704 87 141 0.0 0.0 0.00 0.07 0.07 74 1013.7
20260904164204 87 182 0.0 0.0 0.00 0.07 0.07 73 1013.7
20260904163204 87 185 0.0 0.0 0.00 0.07 0.07 74 1013.9
20260904162703 87 152 0.0 0.0 0.00 0.07 0.07 75 1013.8
20260904161704 86 187 0.0 0.0 0.00 0.07 0.07 77 1013.8
20260904161204 86 153 0.0 0.0 0.00 0.07 0.07 78 1013.6
20260904160703 85 175 0.0 0.0 0.01 0.07 0.07 81 1013.6
20260904160203 85 180 0.0 0.0 0.01 0.07 0.07 82 1013.7
20260904155203 83 187 0.0 0.0 0.01 0.07 0.07 86 1013.6
20260904154703 82 191 0.0 0.0 0.01 0.07 0.07 89 1013.6
20260904154203 82 185 0.0 0.0 0.01 0.07 0.07 90 1013.5
20260904153703 81 178 0.0 0.0 0.01 0.07 0.07 92 1013.6
20260904153203 81 172 0.0 0.0 0.01 0.07 0.07 93 1013.6
20260904152703 80 171 0.0 0.0 0.01 0.07 0.07 94 1013.5
20260904152204 80 178 0.0 1.0 0.01 0.07 0.07 94 1013.4
20260904150704 80 168 0.0 0.0 0.00 0.06 0.06 95 1013.4
20260904150204 80 168 0.0 0.0 0.00 0.06 0.06 95 1013.3
20260904145203 80 168 0.0 0.0 0.00 0.06 0.06 95 1013.3
20260904144704 80 171 0.0 0.0 0.00 0.06 0.06 95 1013.2
20260904144204 80 171 0.0 0.0 0.00 0.06 0.06 95 1013.2
20260904143704 80 184 0.0 0.0 0.00 0.06 0.06 95 1013.1
20260904143204 80 184 0.0 0.0 0.00 0.06 0.06 95 1013.0
20260904142203 80 184 0.0 0.0 0.00 0.06 0.06 95 1013.0
20260904141703 79 184 0.0 0.0 0.00 0.06 0.06 95 1013.1
20260904141204 79 184 0.0 0.0 0.00 0.06 0.06 95 1013.1
20260904140703 79 184 0.0 0.0 0.00 0.06 0.06 95 1013.1
20260904140203 79 184 0.0 0.0 0.00 0.06 0.06 95 1013.0
20260904135704 79 184 0.0 0.0 0.00 0.06 0.06 95 1013.0
20260904135204 79 184 0.0 0.0 0.00 0.06 0.06 95 1012.9
20260904133704 79 184 0.0 0.0 0.00 0.06 0.06 95 1012.8
20260904133204 79 184 0.0 0.0 0.00 0.06 0.06 95 1012.7
20260904132703 79 184 0.0 0.0 0.00 0.06 0.06 94 1012.7
20260904132203 79 184 0.0 0.0 0.00 0.06 0.06 94 1012.6
20260904131704 79 184 0.0 0.0 0.00 0.06 0.06 94 1012.5
20260904131204 79 184 0.0 0.0 0.00 0.06 0.06 94 1012.5
20260904130704 79 184 0.0 0.0 0.00 0.06 0.06 94 1012.4
20260904130204 78 184 0.0 0.0 0.00 0.06 0.06 94 1012.6
20260904125703 78 184 0.0 0.0 0.00 0.06 0.06 94 1012.5
20260904125204 78 184 0.0 0.0 0.00 0.06 0.06 94 1012.5
20260904124704 78 184 0.0 0.0 0.01 0.06 0.06 94 1012.4
20260904124203 78 184 0.0 0.0 0.01 0.06 0.06 94 1012.3
20260904123704 78 184 0.0 0.0 0.02 0.06 0.06 94 1012.3
20260904123204 78 184 0.0 0.0 0.02 0.06 0.06 93 1012.2
20260904122704 79 184 0.0 0.0 0.03 0.06 0.06 93 1012.2
20260904122204 79 184 0.0 0.0 0.05 0.06 0.06 93 1012.1
20260904121703 79 182 0.0 0.0 0.06 0.06 0.06 93 1012.1
20260904121204 79 196 0.0 0.0 0.06 0.06 0.06 93 1012.0
20260904120704 79 123 0.0 0.0 0.06 0.06 0.06 93 1012.0
20260904120203 79 123 0.0 0.0 0.06 0.06 0.06 93 1011.9
20260904115703 79 123 0.0 0.0 0.06 0.06 0.06 93 1011.9
20260904115204 79 123 0.0 0.0 0.06 0.06 0.06 92 1011.9
20260904114704 79 123 0.0 0.0 0.05 0.05 0.05 92 1011.9
20260904114204 79 123 0.0 0.0 0.05 0.05 0.05 92 1012.0
20260904113703 79 118 0.0 0.0 0.04 0.04 0.04 91 1012.1
20260904113204 79 117 0.0 0.0 0.04 0.04 0.04 91 1012.2
20260904112704 79 117 0.0 0.0 0.03 0.03 0.03 91 1012.3
20260904112203 79 117 0.0 0.0 0.01 0.01 0.01 90 1012.4
20260904111704 79 117 0.0 0.0 0.00 0.00 0.00 90 1012.5
20260904111203 79 117 0.0 0.0 0.00 0.00 0.00 90 1012.4
20260904110703 79 117 0.0 0.0 0.00 0.00 0.00 90 1012.3
20260904110204 79 117 0.0 0.0 0.00 0.00 0.00 90 1012.2
20260904105703 79 117 0.0 0.0 0.00 0.00 0.00 90 1012.2
20260904104704 79 117 0.0 0.0 0.00 0.00 0.00 90 1012.2
20260904104203 79 117 0.0 0.0 0.00 0.00 0.00 90 1012.1
20260904103703 79 118 0.0 0.0 0.00 0.00 0.00 90 1012.0
20260904103203 79 118 0.0 0.0 0.00 0.00 0.00 90 1012.0
20260904102703 79 118 0.0 0.0 0.00 0.00 0.00 90 1012.0
20260904102204 79 118 0.0 0.0 0.00 0.00 0.00 90 1011.9
20260904101703 79 118 0.0 0.0 0.00 0.00 0.00 90 1011.9
20260904101204 79 118 0.0 0.0 0.00 0.00 0.00 89 1011.8
20260904100704 79 118 0.0 0.0 0.00 0.00 0.00 89 1011.8
20260904100204 79 118 0.0 0.0 0.00 0.00 0.00 89 1011.7
20260904095703 79 118 0.0 0.0 0.00 0.00 0.00 89 1011.8
20260904095203 79 118 0.0 0.0 0.00 0.00 0.00 89 1011.8
20260904094703 79 118 0.0 0.0 0.00 0.00 0.00 89 1011.8
20260904094204 79 118 0.0 0.0 0.00 0.00 0.00 89 1011.8
20260904093703 79 118 0.0 0.0 0.00 0.00 0.00 89 1011.8
20260904093204 79 118 0.0 0.0 0.00 0.00 0.00 89 1011.7
20260904092204 79 118 0.0 0.0 0.00 0.00 0.00 89 1011.6
20260904091704 79 118 0.0 0.0 0.00 0.00 0.00 89 1011.6
20260904091204 79 118 0.0 0.0 0.00 0.00 0.00 89 1011.5
20260904090203 79 118 0.0 0.0 0.00 0.00 0.00 88 1011.5
20260904085703 79 118 0.0 0.0 0.00 0.00 0.00 88 1011.4
20260904085204 79 118 0.0 0.0 0.00 0.00 0.00 88 1011.4
20260904084703 79 118 0.0 0.0 0.00 0.00 0.00 88 1011.4
20260904084204 79 118 0.0 0.0 0.00 0.00 0.00 88 1011.5
20260904083704 79 118 0.0 0.0 0.00 0.00 0.00 88 1011.5
20260904083204 79 118 0.0 0.0 0.00 0.00 0.00 88 1011.5
20260904082703 79 118 0.0 0.0 0.00 0.00 0.00 88 1011.5
20260904082203 79 118 0.0 0.0 0.00 0.00 0.00 87 1011.6
20260904081704 79 118 0.0 0.0 0.00 0.00 0.00 87 1011.5
20260904081203 79 118 0.0 0.0 0.00 0.00 0.00 87 1011.5
20260904080703 79 118 0.0 0.0 0.00 0.00 0.00 87 1011.5
20260904080204 79 118 0.0 0.0 0.00 0.00 0.00 87 1011.5
20260904075204 79 118 0.0 0.0 0.00 0.00 0.00 87 1011.5
20260904074704 79 118 0.0 0.0 0.00 0.00 0.00 87 1011.6
20260904074204 79 118 0.0 0.0 0.00 0.00 0.00 87 1011.6
20260904073703 79 118 0.0 0.0 0.00 0.00 0.00 87 1011.7
20260904073204 80 118 0.0 0.0 0.00 0.00 0.00 86 1011.6
20260904072704 80 118 0.0 0.0 0.00 0.00 0.00 86 1011.7
20260904071703 80 118 0.0 0.0 0.00 0.00 0.00 86 1011.7
20260904071204 80 118 0.0 0.0 0.00 0.00 0.00 86 1011.8
20260904070704 80 118 0.0 0.0 0.00 0.00 0.00 86 1011.9
20260904070204 80 118 0.0 0.0 0.00 0.00 0.00 86 1011.9
20260904065703 80 118 0.0 0.0 0.00 0.00 0.00 86 1011.9
20260904065204 80 118 0.0 0.0 0.00 0.00 0.00 86 1011.9
20260904064203 80 118 0.0 0.0 0.00 0.00 0.00 86 1012.0
20260904063704 80 118 0.0 0.0 0.00 0.00 0.00 86 1012.0
20260904063204 80 118 0.0 0.0 0.00 0.00 0.00 85 1012.0
20260904062703 80 118 0.0 0.0 0.00 0.00 0.00 85 1012.0
20260904062204 80 118 0.0 0.0 0.00 0.00 0.00 85 1011.9
20260904061704 80 118 0.0 0.0 0.00 0.00 0.00 85 1011.9
20260904061204 80 118 0.0 0.0 0.00 0.00 0.00 85 1012.0
20260904060703 80 118 0.0 0.0 0.00 0.00 0.00 85 1012.0
20260904060203 80 118 0.0 0.0 0.00 0.00 0.00 85 1012.0
20260904055703 80 118 0.0 0.0 0.00 0.00 0.00 85 1012.0
20260904055204 80 118 0.0 0.0 0.00 0.00 0.00 85 1012.0
20260904053704 80 118 0.0 0.0 0.00 0.00 0.00 84 1012.0
20260904053203 80 118 0.0 0.0 0.00 0.00 0.00 84 1011.9
20260904052704 80 118 0.0 0.0 0.00 0.00 0.00 84 1011.9
20260904052204 80 118 0.0 0.0 0.00 0.00 0.00 84 1011.9
20260904051703 80 118 0.0 0.0 0.00 0.00 0.00 84 1011.8
20260904051204 80 118 0.0 0.0 0.00 0.00 0.00 84 1011.8
20260904050703 80 118 0.0 0.0 0.00 0.00 0.00 84 1011.6
20260904050203 80 118 0.0 0.0 0.00 0.00 0.00 84 1011.6
20260904045704 80 118 0.0 0.0 0.00 0.00 0.00 84 1011.7
20260904045204 80 110 0.0 0.0 0.00 0.00 0.00 84 1011.6
20260904044703 80 110 0.0 0.0 0.00 0.00 0.00 84 1011.6
20260904044204 80 110 0.0 0.0 0.00 0.00 0.00 84 1011.6
20260904043704 80 110 0.0 0.0 0.00 0.00 0.00 84 1011.5
20260904043203 80 110 0.0 0.0 0.00 0.00 0.00 84 1011.5
20260904042704 80 110 0.0 0.0 0.00 0.00 0.00 84 1011.6
20260904042203 80 110 0.0 0.0 0.00 0.00 0.00 84 1011.6
20260904041703 80 110 0.0 0.0 0.00 0.00 0.00 84 1011.6
20260904041204 80 110 0.0 0.0 0.00 0.00 0.00 84 1011.6
20260904040703 80 110 0.0 0.0 0.00 0.00 0.00 84 1011.6
20260904035704 80 110 0.0 0.0 0.00 0.00 0.00 84 1011.6
20260904035204 80 110 0.0 0.0 0.00 0.00 0.00 84 1011.6
20260904034704 80 110 0.0 0.0 0.00 0.00 0.00 84 1011.6
20260904034203 80 110 0.0 0.0 0.00 0.00 0.00 83 1011.5
20260904033203 80 110 0.0 0.0 0.00 0.00 0.00 83 1011.3
20260904032715 80 110 0.0 0.0 0.00 0.00 0.00 83 1011.3
20260904032204 80 108 0.0 0.0 0.00 0.00 0.00 83 1011.3
20260904031703 80 110 0.0 0.0 0.00 0.00 0.00 83 1011.2
20260904031204 80 108 0.0 0.0 0.00 0.00 0.00 83 1011.3
20260904030703 80 110 0.0 0.0 0.00 0.00 0.00 82 1011.3
20260904030203 80 110 0.0 0.0 0.00 0.00 0.00 82 1011.4
20260904025704 81 113 0.0 0.0 0.00 0.00 0.00 82 1011.4
20260904025203 81 113 0.0 0.0 0.00 0.00 0.00 82 1011.3
20260904024703 81 113 0.0 0.0 0.00 0.00 0.00 82 1011.3
20260904024204 81 111 0.0 0.0 0.00 0.00 0.00 82 1011.2
20260904023703 81 110 0.0 0.0 0.00 0.00 0.00 81 1011.2
20260904023204 81 110 0.0 0.0 0.00 0.00 0.00 81 1011.0
20260904022704 81 110 0.0 0.0 0.00 0.00 0.00 81 1011.1
20260904022203 81 110 0.0 0.0 0.00 0.00 0.00 80 1011.0
20260904021203 81 112 0.0 0.0 0.00 0.00 0.00 80 1010.7
20260904020704 81 112 0.0 0.0 0.00 0.00 0.00 79 1010.6
20260904020204 82 112 0.0 0.0 0.00 0.00 0.00 79 1010.5
20260904015704 82 111 0.0 0.0 0.00 0.00 0.00 79 1010.4
20260904014703 82 109 0.0 0.0 0.00 0.00 0.00 78 1010.4
20260904013704 82 102 0.0 0.0 0.00 0.00 0.00 77 1010.3
20260904013204 82 98 0.0 0.0 0.00 0.00 0.00 76 1010.3
20260904012703 83 96 0.0 0.0 0.00 0.00 0.00 76 1010.2
20260904012203 83 107 0.0 0.0 0.00 0.00 0.00 75 1010.1
20260904011704 83 122 0.0 1.0 0.00 0.00 0.00 75 1010.1
20260904011203 83 278 0.0 0.0 0.00 0.00 0.00 74 1010.0
20260904010704 83 107 0.0 3.0 0.00 0.00 0.00 74 1010.0
20260904010204 83 118 0.0 2.0 0.00 0.00 0.00 73 1009.9
20260904005704 84 109 0.0 0.0 0.00 0.00 0.00 72 1010.0
20260904005203 84 79 0.0 0.0 0.00 0.00 0.00 71 1009.9
20260904004704 84 116 0.0 0.0 0.00 0.00 0.00 71 1010.0
20260904004203 85 109 0.0 0.0 0.00 0.00 0.00 70 1010.1
20260904003704 85 94 0.0 0.0 0.00 0.00 0.00 69 1010.0
20260904003203 85 107 0.0 0.0 0.00 0.00 0.00 69 1010.0
20260904002704 85 106 0.0 1.0 0.00 0.00 0.00 68 1010.0
20260904002203 85 87 0.0 0.0 0.00 0.00 0.00 69 1009.9
20260904001204 85 106 0.0 0.0 0.00 0.00 0.00 68 1009.9
20260904000704 86 110 0.0 0.0 0.00 0.00 0.00 68 1009.8
20260904000204 86 118 0.0 0.0 0.00 0.00 0.00 68 1009.8
20260903235703 86 115 0.0 0.0 0.00 0.00 0.00 67 1009.8
20260903235203 86 128 0.0 0.0 0.00 0.00 0.00 67 1009.8
20260903234703 86 101 0.0 0.0 0.00 0.00 0.00 68 1009.7
20260903234203 86 115 0.0 0.0 0.00 0.00 0.00 68 1009.6
20260903233204 86 94 1.0 7.0 0.00 0.00 0.00 68 1009.7
20260903232704 87 104 0.0 0.0 0.00 0.00 0.00 68 1009.6
20260903232203 87 113 0.0 2.0 0.00 0.00 0.00 67 1009.6
20260903231704 87 111 0.0 3.0 0.00 0.00 0.00 68 1009.6
20260903231204 87 106 1.0 7.0 0.00 0.00 0.00 67 1009.5
20260903230703 87 122 0.0 1.0 0.00 0.00 0.00 67 1009.5
20260903225703 87 108 0.0 3.0 0.00 0.00 0.00 68 1009.6
20260903225204 87 112 0.0 1.0 0.00 0.00 0.00 68 1009.5
20260903224704 88 115 0.0 10.0 0.00 0.00 0.00 68 1009.4
20260903224204 87 95 1.0 3.0 0.00 0.00 0.00 69 1009.3
20260903223703 87 102 0.0 0.0 0.00 0.00 0.00 70 1009.4
20260903222703 87 92 0.0 3.0 0.00 0.00 0.00 69 1009.3
20260903222204 87 107 1.0 5.0 0.00 0.00 0.00 69 1009.4
20260903221704 87 105 0.0 0.0 0.00 0.00 0.00 68 1009.4
20260903221204 88 110 0.0 0.0 0.00 0.00 0.00 68 1009.5
20260903220204 89 116 0.0 0.0 0.00 0.00 0.00 66 1009.6
20260903215704 90 114 0.0 0.0 0.00 0.00 0.00 66 1009.6
20260903215203 91 104 0.0 0.0 0.00 0.00 0.00 64 1009.6
20260903214703 91 119 0.0 0.0 0.00 0.00 0.00 60 1009.4
20260903214204 91 173 0.0 0.0 0.00 0.00 0.00 59 1009.3
20260903213703 91 166 0.0 0.0 0.00 0.00 0.00 60 1009.4
20260903213203 91 159 0.0 0.0 0.00 0.00 0.00 61 1009.4
20260903212703 91 167 0.0 0.0 0.00 0.00 0.00 60 1009.4
20260903212203 91 112 0.0 0.0 0.00 0.00 0.00 60 1009.4
20260903211704 91 109 0.0 0.0 0.00 0.00 0.00 60 1009.4
20260903211204 91 122 0.0 0.0 0.00 0.00 0.00 60 1009.5
20260903210703 91 124 0.0 0.0 0.00 0.00 0.00 61 1009.5
20260903210203 91 125 0.0 0.0 0.00 0.00 0.00 62 1009.5
20260903205704 93 125 0.0 0.0 0.00 0.00 0.00 58 1009.6
20260903205203 95 118 0.0 0.0 0.00 0.00 0.00 55 1009.6
20260903204703 95 117 0.0 0.0 0.00 0.00 0.00 51 1009.6
20260903204204 96 122 0.0 0.0 0.00 0.00 0.00 49 1009.6
20260903203704 97 109 0.0 0.0 0.00 0.00 0.00 47 1009.4
20260903203204 98 108 0.0 0.0 0.00 0.00 0.00 45 1009.3
20260903202703 98 108 0.0 0.0 0.00 0.00 0.00 45 1009.5
20260903202204 99 85 0.0 0.0 0.00 0.00 0.00 45 1009.5
20260903201204 99 173 0.0 0.0 0.00 0.00 0.00 45 1009.7
20260903200703 99 102 0.0 0.0 0.00 0.00 0.00 44 1009.7
20260903200203 99 118 0.0 0.0 0.00 0.00 0.00 44 1009.6
20260903195703 99 118 0.0 0.0 0.00 0.00 0.00 45 1009.7
20260903195203 99 114 0.0 0.0 0.00 0.00 0.00 44 1009.7
20260903194704 100 115 0.0 0.0 0.00 0.00 0.00 45 1009.9
20260903194203 100 118 0.0 0.0 0.00 0.00 0.00 44 1009.9
20260903193704 100 185 0.0 0.0 0.00 0.00 0.00 44 1009.9